Location: La Bilong�re
(48.1297°N, 1.4584°W)
Time: 23:58:07
(UTC+00:00)

Cosmos 1992 Rocket - Pass Details

Date: 03 March 2021
Orbit: 759 x 765 km, 74.0° (Epoch: 20 April)

Event Time Altitude Azimuth Distance (km) Brightness Sun altitude
Rises 19:28:29 0° 211° (SSW) 3,218 7.5 -16.6°
Reaches altitude 10° 19:30:53 10° 214° (SW) 2,296 6.8 -17.0°
Maximum altitude 19:36:02 62° 296° (WNW) 857 4.5 -17.9°
Drops below altitude 10° 19:41:14 10° 17° (NNE) 2,308 6.4 -18.7°
Sets 19:43:39 0° 21° (NNE) 3,238 7.2 -19.1°
